This demonstration page uses our WeatherBlox Daily Observations layout. Learn more.

Left ArrowRight Arrow

38.80484, -77.04692

Hourly Observations for October 26, 2019

Temp ( °F °C ) Dew Point ( °F °C ) Humidity (%) Winds ( mph kmh ) Pressure ( in mb ) Visibility ( mi km ) Precip ( " mm )
12:52 am 00:52 Cloudy 60 15.6 53 11.7 78 78 S 3 6 30.20 1023 10 16 0.00 0.00
1:52 am 01:52 Cloudy 60 15.6 53 11.7 78 78 SSW 3 6 30.19 1022 10 16 0.00 0.00
2:52 am 02:52 Cloudy 60 15.6 54 12.2 80 80 Calm 30.17 1022 10 16 0.00 0.00
3:52 am 03:52 Cloudy 60 15.6 54 12.2 80 80 Calm 30.18 1022 10 16 0.00 0.00
4:52 am 04:52 Cloudy 60 15.6 55 12.8 84 84 Calm 30.19 1022 10 16 0.00 0.00
5:52 am 05:52 Cloudy 59 15 54 12.2 83 83 SSW 3 6 30.19 1022 10 16 0.00 0.00
6:52 am 06:52 Cloudy 58 14.4 55 12.8 90 90 SSW 6 9 30.19 1022 10 16 0.00 0.00
7:52 am 07:52 Mostly Cloudy 59 15 54 12.2 83 83 Calm 30.20 1023 10 16 0.00 0.00
8:52 am 08:52 Mostly Cloudy 60 15.6 53 11.7 78 78 Calm 30.22 1023 10 16 0.00 0.00
9:52 am 09:52 Mostly Cloudy 63 17.2 50 10 63 63 ENE 5 7 30.23 1024 10 16 0.00 0.00
10:52 am 10:52 Mostly Cloudy 64 17.8 48 8.9 56 56 ENE 7 11 30.23 1024 10 16 0.00 0.00
11:52 am 11:52 Mostly Cloudy with Light Rain 64 17.8 50 10 60 60 ENE 12 19 30.23 1024 10 16 0.00 0.00
12:52 pm 12:52 Mostly Cloudy 66 18.9 50 10 56 56 E 10 17 30.21 1023 10 16 0.00 0.00
1:52 pm 13:52 Mostly Cloudy 66 18.9 48 8.9 52 52 ENE 8 13 30.19 1022 10 16 0.00 0.00
2:52 pm 14:52 Cloudy 67 19.4 47 8.3 49 49 E 8 13 30.17 1022 10 16 0.00 0.00
3:52 pm 15:52 Cloudy 66 18.9 49 9.4 54 54 ESE 8 13 30.17 1022 10 16 0.00 0.00
4:52 pm 16:52 Cloudy 65 18.3 50 10 59 59 E 8 13 30.16 1021 10 16 0.00 0.00
5:52 pm 17:52 Cloudy 64 17.8 51 10.6 63 63 E 6 9 30.14 1021 10 16 0.00 0.00
6:52 pm 18:52 Cloudy 62 16.7 52 11.1 70 70 ESE 6 9 30.16 1021 10 16 0.00 0.00
7:52 pm 19:52 Cloudy 63 17.2 53 11.7 70 70 E 6 9 30.15 1021 10 16 0.00 0.00
8:52 pm 20:52 Cloudy 62 16.7 55 12.8 78 78 ESE 10 17 30.14 1021 10 16 0.00 0.00
9:52 pm 21:52 Cloudy 62 16.7 55 12.8 78 78 ESE 9 15 30.14 1021 10 16 0.00 0.00
10:52 pm 22:52 Cloudy with Light Rain 61 16.1 56 13.3 84 84 E 8 13 30.13 1020 10 16 0.00 0.00
11:52 pm 23:52 Cloudy with Light Rain 60 15.6 56 13.3 86 86 ESE 7 11 30.10 1019 10 16 0.00 0.00

Powered by AerisWeather